Location: Newark
(55.2831°N, 38.7366°E)
Time: 19:10:04
(UTC+00:00)

NO-84 - Visible Passes

Search period start: 14 October 2019 00:00
Search period end: 24 October 2019 00:00
Orbit: 332 x 509 km, 55.0° (Epoch: 03 October)

Date Brightness Start Highest point End Pass type
(mag) Time Alt. Az. Time Alt. Az. Time Alt. Az.
14 Oct ? 01:32:03 72° W 01:32:27 88° S 01:36:22 10° E visible
14 Oct ? 03:05:07 10° W 03:09:00 64° SSW 03:12:50 10° ESE visible
15 Oct ? 00:46:45 37° E 00:46:45 37° E 00:49:13 10° E visible
15 Oct ? 02:19:44 25° W 02:21:53 75° SSW 02:25:46 10° ESE visible
16 Oct ? 00:01:26 14° E 00:01:26 14° E 00:02:03 10° E visible
16 Oct ? 01:34:25 75° WSW 01:34:43 84° S 01:38:38 10° E visible
16 Oct ? 03:07:25 10° W 03:11:07 41° SSW 03:14:45 10° SE visible
17 Oct ? 00:49:08 34° E 00:49:08 34° E 00:51:26 10° E visible
17 Oct ? 02:22:06 26° W 02:24:00 53° SSW 02:27:48 10° SE visible
18 Oct ? 00:03:51 12° E 00:03:51 12° E 00:04:12 10° E visible
18 Oct ? 01:36:50 66° SSW 01:36:50 66° SSW 01:40:41 10° ESE visible
18 Oct ? 03:09:50 10° W 03:12:59 24° SW 03:16:08 10° SSE visible
19 Oct ? 00:51:37 27° ESE 00:51:37 27° ESE 00:53:30 10° ESE visible
19 Oct ? 02:24:36 26° WSW 02:25:54 33° SSW 02:29:24 10° SSE visible
20 Oct ? 01:39:26 39° S 01:39:26 39° S 01:42:26 10° SE visible
20 Oct ? 03:12:38 10° WSW 03:14:33 13° SW 03:16:27 10° SSW visible
21 Oct ? 00:54:21 17° SE 00:54:21 17° SE 00:55:19 10° SE visible
21 Oct ? 02:27:21 19° SW 02:27:30 19° SW 02:30:17 10° S visible
22 Oct ? 01:42:21 17° S 01:42:21 17° S 01:43:39 10° SSE visible
